Pontiac, IL

4:12 PM CDT on July 26, 2017 (GMT -0500)
Pontiac Municipal

Weather History for KPNT - March, 2013

Change the Weather History Date:

Wednesday, March 20, 2013

  Actual Average Record
Temperature  
Mean Temperature 24 °F -  
Max Temperature 30 °F 49 °F 86 °F (2012)
Min Temperature 17 °F 31 °F 7 °F (1906)
Degree Days  
Heating Degree Days 42    
Moisture  
Dew Point 11 °F    
Average Humidity 58    
Maximum Humidity 74    
Minimum Humidity 43    
Precipitation  
Precipitation 0.00 in - - ()
Sea Level Pressure  
Sea Level Pressure 30.10 in    
Wind  
Wind Speed 18 mph (WNW)    
Max Wind Speed 28 mph    
Max Gust Speed 33 mph    
Visibility 10 miles    
Events Snow    
Averages and records for this station are not official NWS values.
T = Trace of Precipitation, MM = Missing Value Source: NWS Daily Summary

Daily Weather History Graph

Daily Weather History Graph

Search for Another Location

Airport or City:

Trip Planner

Search our weather history database for the weather conditions in past years. The results will help you decide how hot, cold, wet, or windy it might be!

Date:

Astronomy

Mar. 20, 2013 Rise Set
Actual Time 6:57 AM CDT 7:06 PM CDT
Civil Twilight 6:30 AM CDT 7:34 PM CDT
Nautical Twilight 5:58 AM CDT 8:06 PM CDT
Astronomical Twilight 5:25 AM CDT 8:39 PM CDT
Moon 12:39 PM CDT (3/20) 2:39 AM CDT (3/20)
Length of Visible Light 13h 04m
Length of Day
12h 09m
First Quarter, 59% of the Moon is Illuminated
Mar 20
First Quarter
Mar 27
Full
Apr 2
Last Quarter
Apr 10
New
Apr 18
First Quarter

Hourly Weather History & Observations

Time (CDT) Temp. Windchill Dew Point Humidity Pressure Visibility Wind Dir Wind Speed Gust Speed Precip Events Conditions
12:15 AM 30.2 °F 20.2 °F 19.4 °F 64% 30.10 in 10.0 mi WNW 12.7 mph - N/A   Overcast
12:35 AM 28.4 °F 17.0 °F 19.4 °F 69% 30.10 in 10.0 mi WNW 15.0 mph - N/A   Overcast
12:55 AM 28.4 °F 17.5 °F 19.4 °F 69% 30.10 in 10.0 mi WNW 13.8 mph - N/A   Overcast
1:15 AM 28.4 °F 16.6 °F 19.4 °F 69% 30.09 in 10.0 mi WNW 16.1 mph - N/A   Mostly Cloudy
1:35 AM 28.4 °F 16.6 °F 17.6 °F 64% 30.10 in 10.0 mi WNW 16.1 mph - N/A   Mostly Cloudy
1:55 AM 28.4 °F 19.1 °F 19.4 °F 69% 30.10 in 10.0 mi WNW 10.4 mph - N/A   Mostly Cloudy
2:15 AM 28.4 °F 17.0 °F 19.4 °F 69% 30.10 in 10.0 mi WNW 15.0 mph 20.7 mph N/A   Mostly Cloudy
2:35 AM 28.4 °F 17.5 °F 19.4 °F 69% 30.10 in 10.0 mi WNW 13.8 mph - N/A   Overcast
2:55 AM 28.4 °F 18.0 °F 19.4 °F 69% 30.09 in 10.0 mi WNW 12.7 mph - N/A   Mostly Cloudy
3:15 AM 26.6 °F 15.2 °F 19.4 °F 74% 30.09 in 10.0 mi WNW 13.8 mph - N/A   Mostly Cloudy
3:35 AM 26.6 °F 14.7 °F 17.6 °F 69% 30.08 in 10.0 mi WNW 15.0 mph 23.0 mph N/A   Mostly Cloudy
3:55 AM 26.6 °F 13.1 °F 17.6 °F 69% 30.08 in 10.0 mi WNW 19.6 mph - N/A   Clear
4:15 AM 24.8 °F 11.1 °F 15.8 °F 69% 30.08 in 10.0 mi NW 18.4 mph 26.5 mph N/A   Clear
4:35 AM 24.8 °F 10.3 °F 14.0 °F 64% 30.08 in 10.0 mi WNW 20.7 mph 28.8 mph N/A   Clear
4:55 AM 23.0 °F 8.7 °F 12.2 °F 63% 30.09 in 10.0 mi WNW 18.4 mph 27.6 mph N/A   Clear
5:15 AM 21.2 °F 6.0 °F 12.2 °F 68% 30.10 in 10.0 mi WNW 19.6 mph - N/A   Clear
5:35 AM 19.4 °F 2.1 °F 8.6 °F 63% 30.10 in 10.0 mi WNW 24.2 mph 29.9 mph N/A   Clear
5:55 AM 19.4 °F 5.0 °F 8.6 °F 63% 30.12 in 10.0 mi NW 16.1 mph 20.7 mph N/A   Clear
6:15 AM 19.4 °F 3.2 °F 10.4 °F 68% 30.12 in 10.0 mi WNW 20.7 mph 25.3 mph N/A   Clear
6:35 AM 19.4 °F 3.2 °F 8.6 °F 63% 30.13 in 10.0 mi WNW 20.7 mph 27.6 mph N/A   Clear
6:55 AM 17.6 °F -0.3 °F 6.8 °F 63% 30.13 in 10.0 mi WNW 24.2 mph 28.8 mph N/A   Clear
7:15 AM 17.6 °F 1.3 °F 6.8 °F 63% 30.14 in 10.0 mi WNW 19.6 mph 26.5 mph N/A   Clear
7:35 AM 17.6 °F 1.3 °F 6.8 °F 63% 30.14 in 10.0 mi WNW 19.6 mph 25.3 mph N/A   Clear
7:55 AM 17.6 °F 0.9 °F 6.8 °F 63% 30.15 in 10.0 mi WNW 20.7 mph 26.5 mph N/A   Clear
8:15 AM 17.6 °F -1.0 °F 6.8 °F 63% 30.14 in 10.0 mi WNW 26.5 mph 31.1 mph N/A   Clear
8:35 AM 17.6 °F 0.1 °F 6.8 °F 63% 30.15 in 10.0 mi WNW 23.0 mph 27.6 mph N/A   Clear
8:55 AM 17.6 °F 0.1 °F 5.0 °F 58% 30.15 in 10.0 mi WNW 23.0 mph 27.6 mph N/A   Clear
9:15 AM 19.4 °F 3.2 °F 5.0 °F 54% 30.14 in 10.0 mi NW 20.7 mph 27.6 mph N/A   Clear
9:35 AM 19.4 °F 3.6 °F 6.8 °F 58% 30.14 in 10.0 mi NW 19.6 mph 28.8 mph N/A   Clear
9:55 AM 21.2 °F 4.5 °F 6.8 °F 54% 30.14 in 10.0 mi WNW 24.2 mph - N/A   Clear
10:15 AM 21.2 °F 5.6 °F 6.8 °F 54% 30.15 in 10.0 mi WNW 20.7 mph 27.6 mph N/A   Clear
10:35 AM 21.2 °F 6.8 °F 8.6 °F 58% 30.15 in 10.0 mi WNW 17.3 mph 25.3 mph N/A   Clear
10:55 AM 21.2 °F 4.9 °F 6.8 °F 54% 30.14 in 10.0 mi West 23.0 mph 29.9 mph N/A   Clear
11:15 AM 23.0 °F 6.9 °F 6.8 °F 50% 30.14 in 10.0 mi WNW 24.2 mph 28.8 mph N/A   Clear
11:35 AM 24.8 °F 10.0 °F 8.6 °F 50% 30.14 in 10.0 mi WNW 21.9 mph 29.9 mph N/A   Clear
11:55 AM 24.8 °F 9.6 °F 8.6 °F 50% 30.13 in 10.0 mi WNW 23.0 mph 31.1 mph N/A   Clear
12:15 PM 24.8 °F 9.3 °F 8.6 °F 50% 30.13 in 10.0 mi West 24.2 mph 32.2 mph N/A   Clear
12:35 PM 24.8 °F 11.5 °F 8.6 °F 50% 30.13 in 10.0 mi WNW 17.3 mph 29.9 mph N/A   Clear
12:55 PM 26.6 °F 12.7 °F 10.4 °F 51% 30.12 in 10.0 mi WNW 20.7 mph 31.1 mph N/A   Scattered Clouds
1:15 PM 26.6 °F 13.8 °F 10.4 °F 51% 30.11 in 10.0 mi WNW 17.3 mph 32.2 mph N/A   Scattered Clouds
1:35 PM 26.6 °F 13.1 °F 10.4 °F 51% 30.10 in 10.0 mi WNW 19.6 mph 31.1 mph N/A   Clear
1:55 PM 26.6 °F 12.0 °F 10.4 °F 51% 30.09 in 10.0 mi WNW 23.0 mph 33.4 mph N/A   Clear
2:15 PM 28.4 °F 14.4 °F 10.4 °F 47% 30.09 in 10.0 mi West 23.0 mph 28.8 mph N/A   Scattered Clouds
2:35 PM 28.4 °F 14.4 °F 10.4 °F 47% 30.08 in 10.0 mi WNW 23.0 mph 31.1 mph N/A   Scattered Clouds
2:55 PM 28.4 °F 14.4 °F 10.4 °F 47% 30.07 in 10.0 mi NW 23.0 mph 29.9 mph N/A   Scattered Clouds
3:15 PM 28.4 °F 14.4 °F 10.4 °F 47% 30.06 in 10.0 mi WNW 23.0 mph 27.6 mph N/A   Mostly Cloudy
3:35 PM 28.4 °F 14.1 °F 10.4 °F 47% 30.06 in 10.0 mi West 24.2 mph 29.9 mph N/A   Scattered Clouds
3:55 PM 28.4 °F 14.1 °F 10.4 °F 47% 30.06 in 10.0 mi WNW 24.2 mph 33.4 mph N/A   Scattered Clouds
4:15 PM 28.4 °F 14.1 °F 8.6 °F 43% 30.06 in 10.0 mi WNW 24.2 mph 33.4 mph N/A   Scattered Clouds
4:35 PM 28.4 °F 14.1 °F 10.4 °F 47% 30.05 in 10.0 mi NW 24.2 mph 33.4 mph N/A   Mostly Cloudy
4:55 PM 28.4 °F 13.3 °F 10.4 °F 47% 30.06 in 10.0 mi WNW 27.6 mph 33.4 mph N/A   Mostly Cloudy
5:15 PM 26.6 °F 12.4 °F 12.2 °F 55% 30.06 in 10.0 mi WNW 21.9 mph 29.9 mph N/A   Mostly Cloudy
5:35 PM 28.4 °F 13.8 °F 10.4 °F 47% 30.06 in 10.0 mi NW 25.3 mph 31.1 mph N/A   Overcast
5:55 PM 26.6 °F 12.7 °F 12.2 °F 55% 30.06 in 10.0 mi WNW 20.7 mph 33.4 mph N/A   Overcast
6:15 PM 26.6 °F 12.7 °F 12.2 °F 55% 30.07 in 10.0 mi NW 20.7 mph 32.2 mph N/A   Overcast
6:35 PM 26.6 °F 12.0 °F 10.4 °F 51% 30.07 in 10.0 mi WNW 23.0 mph 32.2 mph N/A   Mostly Cloudy
6:55 PM 26.6 °F 11.7 °F 10.4 °F 51% 30.07 in 10.0 mi WNW 24.2 mph 33.4 mph N/A   Overcast
7:15 PM 24.8 °F 9.3 °F 10.4 °F 54% 30.07 in 10.0 mi WNW 24.2 mph 33.4 mph N/A   Mostly Cloudy
7:35 PM 24.8 °F 11.1 °F 10.4 °F 54% 30.07 in 10.0 mi WNW 18.4 mph 32.2 mph N/A   Mostly Cloudy
7:55 PM 24.8 °F 11.5 °F 10.4 °F 54% 30.07 in 10.0 mi WNW 17.3 mph 26.5 mph N/A   Mostly Cloudy
8:15 PM 24.8 °F 11.1 °F 10.4 °F 54% 30.07 in 10.0 mi NW 18.4 mph 27.6 mph N/A   Mostly Cloudy
8:35 PM 24.8 °F 10.0 °F 10.4 °F 54% 30.07 in 10.0 mi NW 21.9 mph 27.6 mph N/A   Overcast
8:55 PM 24.8 °F 10.3 °F 10.4 °F 54% 30.07 in 10.0 mi WNW 20.7 mph 27.6 mph N/A   Overcast
9:15 PM 24.8 °F 11.1 °F 12.2 °F 59% 30.07 in 10.0 mi NW 18.4 mph 26.5 mph N/A   Overcast
9:35 PM 24.8 °F 10.7 °F 12.2 °F 59% 30.07 in 10.0 mi NW 19.6 mph 25.3 mph N/A   Overcast
9:55 PM 23.0 °F 8.3 °F 14.0 °F 68% 30.07 in 7.0 mi WNW 19.6 mph - N/A Snow Light Snow
10:15 PM 23.0 °F 9.2 °F 10.4 °F 59% 30.07 in 10.0 mi NW 17.3 mph 25.3 mph N/A   Mostly Cloudy
10:35 PM 23.0 °F 8.7 °F 10.4 °F 59% 30.07 in 10.0 mi NW 18.4 mph 25.3 mph N/A   Mostly Cloudy
10:55 PM 23.0 °F 9.2 °F 12.2 °F 63% 30.07 in 10.0 mi NW 17.3 mph 20.7 mph N/A   Mostly Cloudy
11:15 PM 23.0 °F 8.7 °F 12.2 °F 63% 30.06 in 10.0 mi NW 18.4 mph 21.9 mph N/A   Overcast
11:35 PM 23.0 °F 8.3 °F 8.6 °F 54% 30.06 in 10.0 mi NW 19.6 mph 27.6 mph N/A   Overcast
11:55 PM 21.2 °F 7.8 °F 10.4 °F 63% 30.06 in 10.0 mi NW 15.0 mph 24.2 mph N/A   Mostly Cloudy